Theta_e
318 317 317 317 317 318 319 318 319 319 319 319 320 320 321 322 323 322 321 321 322 323 324 324 324 324 324 324 324 324 324 325 326 327 327 328 328 328 327 327 326 326 325 325 327 327 326 327 327 324 322 324 328 329 330 330 328 328 328 328 328 328 328
317 318 318 318 316 316 317 317 318 318 318 317 317 317 318 319 319 319 318 318 319 320 321 322 322 323 324 323 324 324 324 324 326 328 328 328 329 328 325 325 325 326 325 324 326 325 324 325 327 327 322 324 329 329 329 330 328 328 328 328 328 328 329
315 316 316 318 317 315 315 316 317 319 318 317 316 316 316 316 316 316 316 317 318 319 320 320 320 321 322 322 323 324 324 324 324 325 327 328 328 325 323 323 323 323 324 324 324 325 324 323 325 326 321 323 330 328 327 329 328 328 329 328 328 328 329
314 315 315 318 317 315 314 314 316 318 317 316 316 315 315 315 315 314 315 315 316 316 317 317 316 317 319 320 321 322 323 324 323 324 324 325 326 325 324 324 324 322 322 322 324 324 324 323 324 326 322 321 325 325 325 328 327 328 329 329 329 329 329
314 314 315 316 314 314 314 314 315 315 314 313 314 314 315 315 315 315 314 315 314 313 313 313 313 315 318 320 320 320 322 323 323 324 323 323 325 325 326 325 324 324 322 321 322 323 324 324 324 326 324 321 323 323 325 327 328 329 329 329 329 328 328
314 315 314 313 313 312 313 314 314 313 312 311 312 313 313 314 315 315 315 315 314 313 312 312 312 313 316 319 321 320 320 321 322 323 323 323 324 325 326 326 325 325 324 323 322 322 323 323 322 323 322 321 322 321 324 328 329 329 329 328 328 326 326
314 315 314 313 313 311 312 313 313 312 312 311 312 312 313 313 313 313 314 314 313 312 312 312 312 312 313 316 320 320 319 320 322 322 322 323 323 324 324 325 325 325 325 325 324 323 323 323 323 322 321 321 321 319 322 327 328 329 329 328 328 326 325
314 315 314 312 312 311 311 311 312 312 313 312 312 312 312 311 311 310 311 311 311 311 311 312 312 311 311 312 315 319 320 320 320 320 321 322 323 323 323 323 324 324 324 324 324 324 325 324 324 323 322 323 324 323 325 327 326 327 329 328 327 326 325
313 314 314 312 311 310 311 311 310 312 313 312 311 312 311 309 309 309 309 309 309 310 310 311 310 311 311 311 315 319 319 317 315 316 318 320 321 321 322 322 323 323 323 323 323 323 324 324 325 324 323 322 324 326 328 327 325 325 327 328 327 326 324
312 313 313 311 310 311 310 310 310 310 311 311 310 311 310 309 308 308 309 309 309 310 310 310 310 309 310 312 316 318 316 313 312 312 314 317 319 320 320 321 321 322 322 322 322 322 323 324 324 324 324 323 322 323 325 327 326 323 323 326 326 326 325
310 310 310 310 310 311 310 309 309 310 310 310 309 309 309 309 309 309 309 309 309 309 309 309 309 309 310 312 315 314 313 312 312 312 313 315 317 318 319 320 320 320 321 321 322 322 323 323 324 324 325 324 322 321 322 324 325 322 320 323 325 326 325
309 309 309 310 310 311 310 310 310 310 309 309 309 308 309 309 309 309 309 309 309 309 310 310 309 310 312 313 314 313 312 312 312 312 314 315 315 317 318 319 319 319 319 320 321 322 322 323 323 323 324 325 324 322 320 321 323 322 320 321 323 325 325
309 309 310 310 310 310 310 310 310 309 308 308 308 308 309 309 309 309 309 309 309 310 310 310 310 312 314 313 312 313 312 311 312 313 314 314 314 315 317 318 318 318 319 319 320 321 322 323 323 323 323 323 323 321 319 319 321 322 320 319 321 323 324
310 310 310 310 309 309 308 308 308 308 307 308 308 309 309 309 308 308 308 309 310 310 310 310 311 314 314 311 311 313 312 311 311 312 313 313 313 314 316 317 318 318 318 319 319 320 321 322 323 323 323 323 322 320 319 318 319 320 320 319 319 320 323
308 308 309 309 308 308 308 308 307 308 308 309 309 309 309 309 309 308 309 310 309 309 309 310 311 313 312 311 311 313 312 312 311 311 311 311 312 313 315 316 317 318 318 319 319 319 319 320 322 322 323 323 322 321 320 318 319 319 318 319 319 318 320
308 308 309 308 308 307 308 308 308 308 308 308 308 308 308 308 309 309 309 309 309 309 309 310 311 312 312 311 311 312 313 311 310 309 309 309 309 310 312 314 315 316 318 318 318 319 319 319 320 321 322 322 322 321 321 319 318 318 317 318 318 317 319
308 308 308 308 308 307 307 307 308 308 307 306 307 307 308 308 308 308 308 308 308 309 308 309 309 311 311 311 311 311 313 312 310 309 309 309 309 309 311 312 314 315 317 317 317 318 318 318 319 320 321 321 322 321 321 319 318 318 317 317 317 317 318
307 307 307 307 307 307 306 307 307 307 306 306 306 307 307 307 307 307 307 308 308 308 308 308 309 309 311 311 310 311 312 312 311 310 310 310 310 309 309 311 313 314 315 316 317 318 318 318 318 319 320 320 321 321 321 320 318 318 317 317 317 317 318
307 307 306 307 306 306 306 306 306 306 306 306 306 307 307 306 307 307 307 307 307 308 308 308 308 309 310 311 311 311 312 311 311 311 311 311 311 310 309 309 311 313 314 315 316 316 317 317 317 318 319 320 321 320 320 320 319 318 317 317 317 317 316
307 307 306 306 306 306 306 306 306 305 305 306 306 306 306 305 306 306 306 306 307 308 309 307 307 308 309 311 312 312 312 312 312 312 312 311 311 309 308 308 310 312 313 314 315 316 316 317 317 318 318 319 320 320 320 320 320 319 317 316 317 316 316
306 306 306 306 306 305 305 305 305 304 304 305 305 305 305 305 305 305 305 306 307 308 308 307 307 308 308 310 311 311 312 312 312 312 312 311 310 308 307 308 309 311 313 314 315 316 316 317 317 317 318 318 319 320 320 319 319 319 318 316 316 316 316
306 306 306 305 305 305 305 305 304 304 304 304 303 304 304 304 305 305 305 306 307 306 306 307 308 307 308 308 309 310 311 311 311 311 310 309 308 307 307 308 309 311 313 314 315 315 315 315 316 315 316 317 318 319 319 319 319 318 317 317 315 314 315
306 306 305 305 305 305 305 304 304 304 304 303 303 303 303 304 304 305 305 306 306 305 305 306 307 307 307 308 308 309 309 310 309 308 307 307 308 308 309 309 310 311 312 312 313 314 314 314 314 314 315 316 317 318 319 318 318 318 317 316 315 314 314
306 306 305 305 305 305 304 304 304 304 304 303 303 304 303 303 304 304 305 305 305 305 305 306 307 307 307 308 308 309 309 308 307 305 305 307 308 308 309 310 311 311 311 310 311 312 314 314 314 314 314 314 315 317 317 318 318 317 317 316 315 314 314
306 305 305 305 305 305 304 304 304 304 303 303 303 304 303 303 303 304 304 304 305 305 305 306 308 307 307 307 308 308 308 307 304 303 304 306 307 307 307 307 308 309 309 310 311 312 313 314 314 314 314 313 314 315 316 317 317 317 316 316 315 314 314
306 305 305 305 305 305 304 304 304 304 304 304 303 303 303 303 303 303 303 303 304 305 305 307 307 307 306 307 307 307 307 305 303 303 303 304 305 305 305 306 307 308 309 311 312 312 312 313 313 313 313 313 313 313 314 315 316 317 316 316 315 315 314
306 305 305 305 305 305 305 304 305 304 304 304 303 303 302 302 303 303 303 303 304 305 305 307 307 306 306 306 306 306 306 304 303 303 303 303 304 304 305 306 307 308 309 310 311 312 312 312 312 313 312 312 312 312 313 313 314 315 315 316 315 315 315
306 305 305 305 305 305 305 305 305 304 305 305 304 303 303 302 302 303 303 304 304 304 304 306 307 306 306 306 306 306 305 304 304 303 302 303 303 303 304 305 307 308 308 309 310 311 311 311 311 311 312 312 312 311 311 312 312 312 312 314 315 315 316
306 305 306 305 305 305 305 305 305 305 305 305 304 304 303 303 303 302 303 304 304 303 303 305 306 306 306 306 306 305 305 304 303 303 302 302 302 302 303 304 306 307 307 308 308 309 310 310 310 310 311 311 311 311 311 310 311 311 311 312 313 314 314
306 306 306 306 306 306 305 305 306 305 305 305 305 304 304 303 303 303 303 304 303 302 302 303 305 306 306 306 306 305 305 304 303 302 302 302 302 302 301 303 306 307 306 306 307 308 308 309 308 309 309 310 310 311 311 310 310 310 310 311 311 311 311
306 306 306 306 306 306 306 306 306 306 305 305 305 305 305 304 304 303 303 303 302 301 300 301 302 304 305 306 305 305 305 303 302 302 302 302 302 302 301 302 304 305 306 305 306 307 308 307 307 308 308 308 309 309 310 310 309 309 309 310 310 310 310
307 307 307 307 306 306 306 306 306 306 306 306 305 305 305 305 304 304 304 303 301 300 300 300 300 302 305 305 305 305 305 303 302 302 302 302 302 302 301 301 302 303 304 304 305 307 307 307 307 307 307 307 308 309 309 310 309 308 308 308 309 309 308
307 307 307 307 307 306 306 306 306 306 306 305 305 305 305 305 304 304 304 303 301 300 300 300 300 301 304 305 305 305 304 302 301 302 302 302 302 302 302 301 301 301 302 302 304 306 307 307 306 306 306 306 306 308 309 309 308 308 307 307 308 308 307
308 308 307 307 306 306 306 306 306 306 306 306 306 306 305 305 305 305 304 303 301 300 300 300 299 300 304 305 305 305 304 302 301 302 302 302 302 302 302 301 301 301 301 301 303 304 306 306 306 306 306 306 306 307 308 308 308 308 307 307 307 307 306
309 308 307 307 306 306 306 306 306 306 306 306 306 305 305 305 305 305 304 303 301 300 300 300 299 300 303 304 303 304 304 302 301 301 301 302 302 302 302 301 301 301 302 302 302 304 305 305 305 306 306 306 307 307 308 308 308 308 307 306 306 306 305
309 308 308 307 307 306 306 306 306 306 306 306 306 305 306 305 305 304 304 303 301 301 300 300 299 299 301 301 301 303 304 303 301 300 301 302 302 302 302 301 301 302 303 303 303 304 305 305 305 305 306 306 307 308 308 308 308 308 307 306 306 305 305
310 309 308 307 307 307 306 306 306 307 306 306 306 306 305 305 304 304 304 302 301 301 300 300 299 299 299 299 300 302 303 303 301 300 300 301 302 303 302 301 301 303 303 304 304 305 305 305 305 305 306 306 306 307 309 308 308 308 308 306 305 305 305
Wind_Speed
16 16 16 17 18 18 18 19 19 18 18 18 18 18 18 18 18 19 20 20 20 19 19 18 18 18 17 16 15 14 14 13 13 13 14 15 15 14 13 12 12 12 12 11 10 8 3 3 9 12 10 8 11 16 18 19 19 18 19 19 21 21 19
16 15 14 14 16 18 18 19 19 17 18 19 19 18 18 18 19 19 19 20 20 19 19 18 18 18 18 18 18 17 17 15 14 13 14 15 16 15 15 15 15 14 13 12 12 11 8 4 4 6 8 7 9 16 20 20 18 17 17 17 19 19 18
19 17 17 15 15 18 18 19 19 17 17 19 19 19 18 18 19 19 19 19 19 19 19 19 20 20 19 18 18 18 18 17 15 15 15 17 17 15 15 17 17 18 16 11 8 8 7 6 4 4 7 5 7 14 19 21 20 18 16 16 18 18 18
20 19 19 17 17 19 19 19 20 18 18 19 19 19 18 18 18 18 18 17 18 19 19 20 21 21 20 18 18 18 18 18 17 16 16 17 18 16 14 15 15 16 17 15 14 12 8 5 4 4 7 8 8 12 17 20 21 19 16 16 18 18 18
20 19 19 19 19 20 20 19 19 19 20 22 21 20 19 20 19 17 18 17 17 19 19 19 20 21 20 17 18 18 18 18 18 18 18 19 18 15 13 14 15 15 18 21 23 21 14 10 8 4 7 10 7 11 16 17 20 20 18 18 19 19 19
18 17 16 18 20 21 20 19 19 20 22 23 23 21 20 21 20 19 20 19 17 18 18 19 20 20 19 17 17 18 19 20 19 19 20 19 18 16 13 14 15 15 17 20 23 24 20 15 10 6 8 11 7 8 12 14 18 19 20 22 20 18 20
14 13 14 17 20 21 19 17 18 19 20 21 22 21 21 22 21 20 21 19 18 19 19 19 20 21 21 19 17 18 19 21 21 20 20 19 18 17 15 14 14 15 17 19 20 21 20 18 14 9 8 9 8 8 9 12 16 16 19 23 23 20 21
10 9 11 14 16 18 17 16 17 17 16 18 21 21 21 22 22 22 22 21 21 21 20 20 21 22 23 21 18 17 18 20 21 21 20 19 18 17 16 15 16 16 17 18 19 19 19 19 19 17 11 6 6 6 5 9 13 16 20 22 22 23 22
10 9 8 11 13 15 15 15 17 16 14 17 20 20 20 21 22 23 22 22 22 21 20 20 21 22 23 21 17 16 17 19 21 22 22 20 20 19 18 17 17 18 18 18 19 20 20 20 21 21 17 10 6 4 3 5 6 12 21 20 18 23 25
9 10 8 10 12 13 13 13 15 14 14 16 19 18 19 21 22 23 23 23 22 20 20 21 21 22 22 20 16 14 18 21 22 23 23 21 21 20 20 20 20 20 20 19 20 20 21 21 22 22 22 18 12 6 3 4 4 7 17 21 20 23 27
8 9 9 10 11 11 11 11 11 13 15 16 17 18 19 20 22 21 21 22 21 21 21 22 23 23 21 19 17 17 20 22 23 23 22 20 20 20 20 21 20 20 21 21 21 21 21 21 22 23 24 23 19 13 8 5 5 9 14 21 24 24 27
9 9 10 10 10 11 11 11 12 15 16 17 17 18 18 19 19 19 19 20 20 21 21 21 23 22 19 17 19 20 21 22 23 22 21 19 19 20 21 21 20 20 20 21 22 22 22 22 22 24 25 25 23 20 17 10 5 10 13 16 23 27 28
9 11 11 11 10 11 12 12 13 15 16 16 16 16 16 17 18 18 19 19 19 20 21 22 22 19 17 20 22 22 21 22 22 21 21 20 20 20 20 21 21 20 20 20 21 22 24 23 23 23 25 27 24 21 22 16 7 9 16 14 16 25 29
10 10 10 10 11 12 12 12 13 14 15 14 14 14 16 17 18 19 19 18 19 20 21 22 21 16 18 23 23 21 20 20 21 21 21 21 21 21 22 22 22 22 21 20 20 20 22 23 23 22 23 26 25 23 25 22 12 10 16 16 14 20 27
11 11 10 11 13 14 14 13 14 15 14 14 15 16 18 19 19 19 19 19 20 21 21 21 19 17 20 24 23 20 20 20 21 22 22 22 23 23 23 24 23 23 23 22 22 21 21 22 22 22 22 24 25 26 26 25 20 12 12 17 17 18 25
11 11 12 12 14 14 14 14 14 15 15 16 16 17 17 18 19 19 20 21 22 22 21 20 19 18 21 23 22 21 21 21 22 22 23 24 25 24 24 24 24 24 23 24 24 23 22 22 22 23 24 24 25 27 28 26 22 17 14 16 18 18 23
12 12 12 12 13 13 13 14 13 14 16 17 16 16 16 17 18 19 20 21 22 22 21 21 21 20 21 21 21 21 21 21 22 23 24 25 26 25 24 24 24 24 23 24 24 24 23 23 23 23 24 25 25 28 30 27 22 20 17 16 18 20 25
11 12 11 11 12 13 14 14 13 14 17 17 16 15 16 17 18 18 19 20 21 22 22 23 24 23 22 21 21 21 20 21 22 23 25 26 27 26 25 24 24 23 22 23 23 24 24 25 25 24 25 25 24 26 29 28 24 20 17 15 19 22 25
10 10 10 11 12 14 14 14 13 15 17 17 16 16 17 18 18 19 19 20 22 23 22 22 24 24 22 21 21 21 21 21 22 23 24 26 28 28 26 25 24 23 22 22 23 24 25 26 26 25 24 25 25 25 26 27 26 22 19 18 20 22 25
9 9 10 12 13 14 14 13 14 16 17 16 16 17 18 18 18 19 20 21 22 21 20 21 22 22 22 22 21 21 22 23 23 24 25 26 27 28 27 25 24 23 23 23 23 24 26 26 25 25 24 24 25 26 26 26 25 23 20 20 21 23 27
8 9 10 12 13 13 14 14 16 17 17 17 17 18 18 19 18 19 20 22 22 20 19 20 20 21 22 21 21 21 22 23 24 25 26 27 27 27 27 25 24 24 24 24 23 24 25 25 24 25 25 25 24 25 25 25 23 22 20 19 21 23 27
8 9 9 11 12 12 13 15 16 17 17 18 18 18 18 19 19 20 21 21 21 20 21 20 19 19 21 21 20 21 21 22 24 25 26 27 27 26 26 25 25 25 24 24 23 24 23 22 22 24 25 25 24 24 24 23 22 22 20 18 20 21 22
7 8 9 11 12 12 13 14 15 16 17 19 19 19 19 20 20 21 21 20 20 21 23 20 17 18 20 20 20 20 21 22 23 25 25 26 26 26 25 25 25 25 25 24 24 24 23 21 21 23 24 25 24 25 25 23 23 23 21 19 21 19 16
7 8 9 11 12 13 13 14 15 15 16 19 20 20 20 20 21 20 20 19 20 22 23 19 16 18 20 19 19 19 21 22 23 23 23 24 25 26 26 25 25 26 26 26 25 24 23 22 22 23 24 23 23 24 25 24 24 24 24 22 22 21 17
8 9 10 11 12 13 12 13 14 14 16 18 19 19 20 20 21 20 19 20 20 22 22 17 15 18 20 19 19 19 20 22 22 22 22 22 24 26 26 26 26 26 25 25 25 24 22 21 22 22 22 22 22 23 25 26 26 26 26 24 22 22 21
9 9 9 10 11 12 13 14 13 13 15 17 17 18 20 21 22 21 20 21 22 21 20 16 14 17 18 17 18 19 20 21 22 21 21 21 23 25 26 26 26 25 24 23 23 23 22 22 21 21 21 21 21 20 21 23 26 28 28 27 24 24 24
9 10 9 10 11 12 12 13 13 12 14 16 16 17 19 21 23 21 21 22 21 18 16 14 13 15 16 16 17 19 20 22 23 23 22 22 22 24 25 25 24 24 24 24 23 22 22 22 22 21 21 21 20 19 18 17 18 20 22 26 27 26 25
10 10 11 11 12 12 12 13 13 13 13 14 15 17 18 21 22 22 21 21 17 13 13 13 12 13 14 14 17 19 20 22 24 25 25 24 23 24 24 23 23 23 24 23 22 21 22 22 22 22 22 23 22 19 18 16 12 11 12 18 23 25 28
11 12 13 14 14 13 13 14 13 13 14 14 15 17 18 20 22 22 21 18 13 10 12 12 11 12 13 13 16 18 19 22 25 26 27 26 25 25 24 21 21 22 23 22 21 21 23 22 21 21 21 23 24 21 19 17 12 8 6 7 11 16 22
12 14 15 16 16 15 15 15 15 14 15 15 16 17 18 20 22 24 22 15 10 10 11 10 11 12 12 13 15 16 17 21 25 26 28 27 26 26 25 21 19 20 22 23 22 22 23 23 22 21 21 21 23 23 21 19 16 12 8 6 6 8 11
14 16 17 19 18 17 16 16 16 16 16 17 18 17 19 20 21 25 23 14 9 9 10 10 11 12 13 13 14 15 16 19 23 26 28 29 28 27 26 23 20 20 21 23 23 22 22 23 23 23 22 21 21 23 23 22 19 17 14 11 9 8 7
17 18 20 21 20 18 17 17 17 17 17 19 20 19 20 21 22 25 23 14 9 9 9 10 12 12 13 13 13 15 17 18 21 24 27 29 29 29 28 26 23 21 21 24 24 23 22 21 23 24 24 22 20 21 24 25 23 21 20 17 15 13 12
20 21 23 24 22 19 18 18 18 19 19 20 21 22 22 22 22 24 23 15 10 9 10 11 13 12 12 12 12 15 17 18 19 22 25 27 28 29 29 28 26 24 24 26 26 23 21 21 23 24 24 22 21 22 22 23 25 25 23 21 18 16 15
23 24 25 26 23 21 20 19 19 20 21 22 24 24 24 23 22 25 23 15 12 11 12 13 13 11 11 11 12 15 17 18 19 20 23 25 26 27 28 29 28 28 28 28 26 23 22 22 23 23 23 22 22 22 20 21 24 25 25 23 20 18 17
27 27 27 27 25 22 22 21 21 22 23 25 26 26 27 25 23 25 24 17 15 15 15 14 13 11 10 11 13 16 17 18 19 19 21 24 25 26 27 28 29 29 28 27 24 22 22 23 23 23 22 21 21 20 18 19 21 22 25 25 22 21 20
28 28 29 29 26 24 24 23 23 24 26 27 28 28 29 27 25 25 24 18 17 17 17 14 12 10 11 12 15 17 17 17 19 20 21 23 24 24 26 27 27 27 25 23 22 21 22 23 23 22 20 19 19 18 16 17 18 20 23 23 22 22 21
29 29 30 29 27 26 25 25 24 26 27 28 29 29 29 28 26 25 23 19 18 18 17 14 11 11 13 14 16 18 18 18 19 21 22 23 22 23 25 25 24 23 23 23 22 22 23 22 21 20 18 17 17 16 13 14 17 19 20 20 20 20 20
Wind_Direction
39 34 30 31 31 28 29 30 30 31 30 29 26 24 24 22 20 17 14 13 11 10 10 8 5 1 357 354 350 346 341 333 337 336 323 319 311 297 295 294 291 289 290 290 274 259 250 295 304 303 301 290 265 254 251 249 248 249 251 249 243 243 243
29 28 23 25 31 26 24 24 23 25 26 25 23 22 24 22 18 15 13 12 9 8 8 6 4 1 357 355 352 350 346 338 334 328 319 318 314 312 319 317 310 303 297 298 288 265 237 233 275 286 293 290 257 251 248 245 245 244 244 245 244 244 241
23 21 17 19 27 25 23 19 14 19 23 19 17 18 20 18 15 12 10 9 7 6 4 2 0 358 357 356 353 350 346 342 336 328 320 314 315 326 331 323 318 314 305 301 290 268 251 242 241 266 282 271 246 251 247 240 239 234 232 236 240 242 238
19 17 20 24 24 21 21 16 10 14 20 17 14 11 9 9 9 8 8 9 8 6 2 360 357 353 350 351 353 350 346 345 341 334 328 320 320 327 322 306 300 299 295 291 285 279 269 250 247 274 286 277 259 257 255 244 235 228 225 227 231 235 238
13 14 24 28 23 18 16 12 7 10 14 10 5 359 357 359 358 358 2 1 1 2 358 357 357 353 347 342 346 349 346 343 341 335 331 328 327 326 314 298 294 289 281 283 287 285 276 265 259 257 284 290 277 262 261 247 234 227 221 223 226 229 235
11 14 24 24 17 11 7 6 4 6 7 2 357 353 352 356 354 351 353 351 351 358 358 357 359 358 352 342 338 344 347 343 338 333 329 328 329 327 317 305 303 298 288 286 286 284 283 280 269 251 274 287 276 262 263 243 233 231 226 225 225 223 230
16 17 18 14 9 3 359 0 359 358 358 356 356 357 359 5 5 3 4 0 358 1 1 359 359 359 358 350 339 339 346 347 340 334 329 328 328 327 324 315 307 300 292 288 283 282 287 288 280 269 273 284 279 268 260 237 228 226 227 228 224 220 225
23 17 14 12 9 3 359 3 2 357 353 354 358 0 6 12 10 7 8 4 360 358 359 360 359 357 355 353 348 343 346 350 345 340 334 328 325 323 321 317 311 305 297 295 294 292 292 289 285 282 275 272 281 286 272 241 225 221 227 228 224 222 224
24 19 21 22 15 6 3 7 6 1 358 359 0 3 8 11 7 3 0 358 355 353 354 357 356 353 352 352 352 348 346 349 348 344 337 327 322 319 318 316 313 309 307 305 302 298 295 290 287 285 280 263 251 276 296 265 238 230 231 227 221 222 224
26 24 24 18 11 7 7 6 2 1 2 0 358 360 4 5 3 0 358 357 359 357 356 356 353 350 350 352 353 349 347 348 346 343 338 330 324 320 318 317 314 311 310 309 303 299 297 293 287 282 279 272 257 245 259 266 258 239 232 225 219 219 221
36 29 26 16 7 5 3 3 6 4 1 358 357 357 360 2 2 2 4 5 5 4 1 357 352 349 348 349 349 348 348 348 343 338 336 331 325 321 318 318 317 314 312 310 305 301 296 293 289 282 277 274 267 252 239 242 256 255 237 224 220 218 217
42 27 20 15 11 8 4 3 10 8 3 4 6 4 6 9 8 6 6 5 2 2 1 357 353 350 350 351 351 350 349 347 342 335 333 331 327 323 320 319 319 319 318 314 308 301 295 290 286 282 276 272 268 262 253 239 240 260 248 228 223 221 218
34 18 9 13 24 30 24 17 18 16 11 10 9 9 12 15 11 4 0 357 356 357 358 356 355 354 355 355 354 351 347 344 340 334 331 331 331 330 326 323 320 320 322 318 311 303 297 292 286 281 278 272 268 270 268 252 227 250 252 246 234 224 218
45 31 24 32 41 39 34 31 28 21 15 13 14 16 16 13 9 3 360 359 359 357 355 355 356 354 351 350 349 346 344 341 337 334 332 330 331 333 330 325 321 320 321 317 313 308 301 296 291 282 278 276 267 262 265 258 242 243 251 253 248 228 218
50 42 46 48 43 36 33 32 28 24 25 26 24 21 17 12 8 5 3 2 359 355 354 354 351 344 345 348 347 344 341 340 338 336 335 334 333 333 330 325 321 320 320 316 312 310 305 299 294 285 277 276 268 254 252 254 249 241 242 248 248 230 214
46 49 54 51 44 40 38 33 31 33 32 27 23 19 14 11 7 4 2 358 354 352 352 354 348 339 341 346 345 343 341 340 340 340 340 339 338 335 331 325 321 320 320 316 311 309 308 302 296 290 280 273 268 258 250 251 251 245 237 237 237 223 206
57 62 60 55 48 42 37 33 33 31 22 16 15 13 9 7 4 1 358 354 351 350 351 352 347 337 335 339 341 340 340 340 340 340 340 340 339 337 332 325 322 322 320 315 310 307 307 304 297 292 285 274 266 261 256 252 252 253 247 231 222 220 209
67 67 60 52 42 33 28 26 24 19 13 11 11 9 6 4 1 359 356 353 348 347 348 350 349 341 332 331 335 337 335 336 337 337 336 336 336 335 333 328 324 324 322 315 311 307 306 304 300 293 287 279 268 260 256 252 250 255 258 239 218 214 210
68 61 50 39 30 24 23 22 18 12 10 9 9 8 6 2 359 357 353 351 349 347 348 351 352 348 337 328 328 332 331 330 331 332 332 332 333 332 331 329 327 326 324 318 312 309 306 303 301 295 290 285 277 266 256 251 251 251 257 255 232 209 202
58 47 37 32 29 26 23 19 12 8 7 7 7 5 2 358 357 355 352 352 352 350 350 352 352 351 345 333 326 326 327 326 326 327 328 329 330 330 328 327 326 325 325 322 316 310 305 301 299 297 292 288 283 274 260 252 252 249 247 255 243 213 199
46 42 39 33 29 25 19 14 10 8 7 7 5 360 356 354 353 352 351 354 356 354 351 351 350 349 346 337 330 327 326 325 325 325 327 328 328 328 327 326 325 324 323 321 317 312 304 298 296 296 294 289 284 278 266 253 248 247 241 246 245 220 198
46 41 33 24 19 14 11 11 10 10 9 6 3 357 352 351 350 349 350 353 356 354 350 347 346 346 343 337 334 332 328 327 328 328 330 330 328 327 327 327 326 326 323 319 318 318 311 302 297 296 293 289 282 277 270 256 245 242 238 237 241 224 196
35 23 12 8 7 5 6 10 11 12 9 2 357 354 353 353 352 349 348 347 348 349 347 344 342 343 342 338 335 334 332 332 334 335 334 332 330 330 330 329 328 328 326 321 321 323 319 310 303 299 294 289 280 273 269 261 247 240 233 227 227 218 195
11 3 358 357 359 359 2 7 7 8 8 0 351 347 349 352 353 350 346 342 341 342 343 341 339 342 343 340 337 336 336 337 338 339 338 337 335 334 333 330 328 326 326 325 323 322 320 315 307 301 298 293 284 275 269 263 253 240 230 223 216 206 196
356 350 348 349 352 353 352 356 0 4 4 359 351 345 343 343 345 345 342 339 337 338 339 338 337 343 343 341 339 337 336 337 339 340 341 339 337 336 334 331 326 322 323 326 325 321 321 317 307 299 297 295 290 283 275 267 258 243 228 218 208 198 198
342 335 334 339 343 344 344 346 352 359 357 353 349 346 342 338 338 337 335 335 335 336 337 334 334 342 343 340 339 337 334 336 340 341 341 339 338 337 337 334 330 327 328 330 330 327 325 322 310 297 291 291 290 287 283 277 267 252 232 217 208 198 196
328 319 319 325 329 333 337 340 345 348 348 347 346 344 341 338 337 335 330 330 334 338 337 331 331 339 342 339 337 334 333 335 339 339 339 339 338 337 337 337 335 334 335 336 336 335 331 327 319 304 288 284 286 283 283 285 280 263 236 219 213 207 200
314 306 307 312 316 322 331 335 337 336 337 342 342 338 335 334 334 334 330 327 330 338 338 330 329 334 336 336 335 333 332 335 337 337 337 338 338 337 337 339 338 336 334 334 336 338 335 329 326 316 295 279 278 279 278 282 287 280 249 227 223 218 210
303 300 303 304 306 315 324 327 329 327 327 332 335 331 328 327 326 328 329 324 320 328 337 334 329 330 330 329 330 330 331 335 337 336 336 336 337 337 337 338 337 334 331 331 333 336 334 330 327 323 306 284 272 270 272 275 276 276 259 227 215 207 199
295 297 299 298 300 308 315 318 321 320 317 319 323 323 322 321 320 321 323 317 307 317 335 339 332 326 323 322 322 324 329 334 336 335 333 333 335 337 338 337 333 329 329 333 333 330 329 330 329 326 317 298 277 265 263 266 267 263 253 228 199 188 181
286 293 295 293 295 299 304 308 312 312 309 308 311 314 317 317 316 318 317 307 294 312 332 341 335 323 316 315 315 319 327 332 334 333 331 331 332 335 338 337 331 326 326 329 330 327 325 329 331 327 321 309 287 267 259 257 255 255 250 241 233 230 222
280 286 289 289 289 291 295 297 301 304 304 302 302 305 311 312 311 314 314 298 282 307 328 337 333 318 308 309 310 315 324 329 331 331 329 327 328 331 335 337 333 328 324 321 323 326 325 326 327 323 318 311 294 276 266 256 247 245 244 241 243 249 253
277 281 284 285 284 285 288 289 292 298 298 297 297 298 303 307 307 310 310 293 274 295 314 324 327 314 299 301 306 311 319 324 327 328 326 323 324 327 331 334 333 330 324 320 321 324 323 321 320 317 313 306 294 286 280 264 247 240 239 239 239 244 253
277 280 282 282 280 280 283 285 287 292 294 293 292 293 297 302 303 307 307 288 263 278 297 311 323 311 290 294 304 306 311 319 324 324 321 319 320 323 327 330 332 331 328 324 322 323 323 323 320 316 312 305 297 293 289 270 250 239 234 235 235 236 241
281 281 281 280 277 276 280 283 286 291 292 290 289 289 293 297 299 305 305 284 258 269 288 305 319 310 289 296 306 301 301 314 322 321 318 317 316 320 325 328 330 332 330 326 324 324 328 330 326 319 315 309 303 298 285 266 251 238 231 231 231 231 233
287 285 283 281 277 276 280 282 286 292 294 291 289 288 290 293 296 301 301 282 259 267 285 299 310 309 299 302 306 297 292 307 321 319 314 314 314 317 322 327 331 333 331 329 326 325 331 334 329 322 319 316 312 305 284 261 248 236 228 225 224 223 224
297 295 292 287 279 278 281 282 288 297 300 298 294 290 289 293 297 299 296 280 264 270 283 289 299 314 310 301 297 291 287 299 315 317 313 312 313 315 320 325 331 333 331 329 326 323 328 335 334 327 324 320 317 314 295 260 243 232 223 216 214 215 216